Location: Litvinovka
(48.6667°N, 34.3500°E)
Time: 10:39:12
(UTC+00:00)

Cosmos 2366 rocket - Pass Details

Date: 18 September 2020
Orbit: 956 x 996 km, 82.9° (Epoch: 25 October)

Event Time Altitude Azimuth Distance (km) Brightness Sun altitude
Rises 23:34:05 0° 351° (N) 3,690 7.6 -33.8°
Reaches altitude 10° 23:36:36 10° 353° (N) 2,744 6.8 -33.6°
Enters shadow 23:41:59 65° 15° (NNE) 1,080 4.3 -33.1°
